Regional Weather Roundup
Issued by NWS

Home | Current Version | Previous Version | Text Only | Print | Product List | Glossary Off
Versions: 1 2 3 4 5 6 7 8 9 10 11 12 13 14 15 16 17 18 19 20 21 22 23 24 25 26 27 28 29 30 31 32 33 34 35 36 37 38 39 40 41 42 43 44 45 46 47 48 49 50

000
ASUS45 KABQ 200110
RWRNM
WEATHER ROUNDUP FOR NEW MEXICO
NATIONAL WEATHER SERVICE ALBUQUERQUE NM
600 PM MST FRI DEC 19 2014

NOTE: "FAIR" MEANS FEW OR NO CLOUDS BELOW 12,000 FEET AGL WITH NO
       SIGNIFICANT WEATHER OR OBSTRUCTIONS TO VISION.

      THIS PRODUCT IS RELEASED AS TWO VERSIONS.  ONE VERSION NEAR
      THE TOP OF THE HOUR CONTAINING PRELIMINARY DATA FROM ALBUQUERQUE
      AND OTHER STATIONS.  A FINAL VERSION WITH ADDITIONAL DATA IS
      ISSUED ABOUT 10 MINUTES AFTER THE HOUR.

NMZ501-503-504-510>518-200200-
NORTHWEST PLATEAU/NORTHCENTRAL MOUNTAINS

CITY           SKY/WX    TMP DP  RH WIND       PRES   REMARKS
FARMINGTON     CLEAR     35  25  66 W3        30.18R
LOS ALAMOS     PTCLDY    30  22  72 CALM      30.15S
SANTA FE       PTCLDY    31  21  66 N10       30.13S WCI  22
TAOS           PTCLDY    27  18  69 SW7       30.15S WCI  19
ANGEL FIRE     FAIR      25  15  65 W7        30.13R WCI  17

$$
NMZ402-403-502-505>509-200200-
WESTCENTRAL MOUNTAINS/SOUTHWEST MOUNTAINS

CITY           SKY/WX    TMP DP  RH WIND       PRES   REMARKS
GALLUP         MOCLDY    30  27  88 W3        30.20R
GRANTS         MOCLDY    30  21  71 NW8       30.20R WCI  22
SILVER CITY    CLEAR     41  32  70 SW5       30.17R

$$
NMZ407-409-411-412-200200-
SOUTHERN DESERTS

CITY           SKY/WX    TMP DP  RH WIND       PRES   REMARKS
LORDSBURG      FAIR      43  34  70 CALM      30.15S
DEMING         CLEAR     45  30  55 SW5       30.14S
LAS CRUCES     CLEAR     42  29  61 NE3       30.16R
HOLLOMAN AFB   CLEAR     41  31  67 NW8       30.14R
ALAMOGORDO     PTCLDY    41  30  65 N7        30.15R
T OR C         CLEAR     43  26  51 E5        30.14R

$$
NMZ519>523-200200-
CENTRAL VALLEYS/CENTRAL HIGHLANDS

CITY           SKY/WX    TMP DP  RH WIND       PRES   REMARKS
ALBUQUERQUE    PTCLDY    40  22  48 N10       30.17S WCI  33
DOUBLE EAGLE   CLEAR     36  21  55 NW9       30.17F WCI  29
MORIARTY ARPT  FAIR      32  22  65 NW12      30.15R WCI  23
CLINES CORNERS CLEAR     29  21  72 W20       30.08F WCI  16
BELEN          FAIR      33  25  70 N6        30.17S WCI  28
SOCORRO        FAIR      38  25  61 CALM      30.16R

$$
NMZ524>526-539-540-200200-
SOUTHCENTRAL MOUNTAINS

CITY           SKY/WX    TMP DP  RH WIND       PRES   REMARKS
RUIDOSO        CLEAR     32  19  59 NW14G20   30.16R WCI  22

$$
NMZ527>531-200200-
NORTHEAST HIGHLANDS/NORTHEAST PLAINS

CITY           SKY/WX    TMP DP  RH WIND       PRES   REMARKS
LAS VEGAS      PTCLDY    29  13  51 SE12      30.06R WCI  19
RATON          CLEAR     29  13  51 NW3       30.05R
CLAYTON        CLEAR     32  27  81 S8        30.07R WCI  25

$$
NMZ532>537-200200-
EASTCENTRAL PLAINS

CITY           SKY/WX    TMP DP  RH WIND       PRES   REMARKS
TUCUMCARI      CLEAR     34  25  69 E6        30.08R WCI  29
CANNON AFB     CLEAR     37  27  66 E5        30.10R WCI  34
CLOVIS AIRPORT CLEAR     36  25  64 CALM      30.10R

$$
NMZ028-029-538-200200-
SOUTHEAST PLAINS

CITY           SKY/WX    TMP DP  RH WIND       PRES   REMARKS
ROSWELL        CLEAR     45  21  38 CALM      30.09R
ARTESIA        CLEAR     46  28  49 SE6       30.11R
CARLSBAD       CLEAR     47  32  56 S9        30.09R
HOBBS          CLEAR     46  23  39 CALM      30.12R


$$


USA.gov is the U.S. government's official web portal to all federal, state and local government web resources and services.